Find Starlink 32673

NORAD ID: 63000 Int'l Des: 2025-031 Owner: SPXS Country: US Constellation: starlink operational
LEOCIRCULAR

Current View

Loading 3D Globe...

About Starlink 32673

Starlink 32673 (NORAD 63000) is a starlink constellation satellite (v2 mini) launched Feb 11, 2025 by SPXS of US. It operates in LEO, CIRCULAR orbit with a mass of 730.00 kg.

Upcoming Passes

Passes for default location (London). Set your location on the main map for personalized predictions.

Altitude History

Loading altitude history...

Two-Line Element Set

1 63000U 25031V 26263.01508946 .00016653 00000-0 61296-3 0 9990
2 63000 43.0034 125.9866 0001452 291.4703 68.5994 15.27599351 90816
Epoch: Sep 20, 2026 • Age: 24 hours

Current Status

Altitude 483.5 km
Apogee / Perigee N/A
Velocity 7.63 km/s
Sub-Earth Point 28.65°N, 154.73°E
Launch Date Feb 11, 2025
Age 1.6 years
Type internet

Technical Details

Classification Payload
Mass 730.00 kg
Dry Mass 700.00 kg
Length 0.30 m
Span 29.00 m
Shape ? Box + pan
Manufacturer SPXS
Bus Type Starlink V2M
Phase Status In Orbit
Owner/State SPXS/US

Most Searched